Change the Weather History Date:

Tuesday, August 27, 2013

  Actual Average Record
Temperature  
Mean Temperature 69 °F -  
Max Temperature 79 °F - - ()
Min Temperature 59 °F - - ()
Cooling Degree Days 4    
Growing Degree Days 19 (Base 50)    
Moisture  
Dew Point 62 °F    
Average Humidity 75    
Maximum Humidity 95    
Minimum Humidity 48    
Precipitation  
Precipitation 0.00 in - - ()
Sea Level Pressure  
Sea Level Pressure 30.03 in    
Wind  
Wind Speed 5 mph ()    
Max Wind Speed 16 mph    
Max Gust Speed -    
Visibility 7.7 miles    
Events      
T = Trace of Precipitation, MM = Missing Value Source: Averaged Metar Reports

Daily Weather History Graph

Daily Weather History Graph

Search for Another Location

Airport or City:

Trip Planner

Search our weather history database for the weather conditions in past years. The results will help you decide how hot, cold, wet, or windy it might be!

Date:

Astronomy

Aug. 27, 2013 Rise Set
Actual Time 5:58 AM VUT 5:39 PM VUT
Civil Twilight 5:36 AM VUT 6:01 PM VUT
Nautical Twilight 5:10 AM VUT 6:26 PM VUT
Astronomical Twilight 4:45 AM VUT 6:51 PM VUT
Moon 11:16 PM VUT (8/27) 10:05 AM VUT (8/27)
Length of Visible Light 12h 24m
Length of Day
11h 40m
Waning Gibbous, 63% of the Moon is Illuminated
Aug 27
Waning Gibbous
Aug 28
Last Quarter
Sep 5
New
Sep 13
First Quarter
Sep 19
Full

Hourly Weather History & Observations

Time (VUT) Temp. Heat Index Dew Point Humidity Pressure Visibility Wind Dir Wind Speed Gust Speed Precip Events Conditions
12:00 AM 62.6 °F - 59.0 °F 88% 30.06 in 6.2 mi Variable 2.3 mph - N/A   Partly Cloudy
2:00 AM 60 °F - 58 °F 90% 29.75 in 12 mi East 3.5 mph - -   Partly Cloudy
2:00 AM 59.0 °F - 57.2 °F 94% 29.74 in 6.2 mi East 3.5 mph - N/A   Scattered Clouds
3:00 AM 59.0 °F - 57.2 °F 94% 30.01 in 6.2 mi Variable 2.3 mph - N/A   Scattered Clouds
4:00 AM 62.6 °F - 60.8 °F 94% 30.04 in 6.2 mi Variable 2.3 mph - N/A   Mostly Cloudy
5:00 AM 64 °F - 63 °F 95% 30.05 in 12 mi NNE 3.5 mph - -   Partly Cloudy
5:00 AM 64.4 °F - 62.6 °F 94% 30.04 in 6.2 mi NNE 3.5 mph - N/A   Mostly Cloudy
6:00 AM 64.4 °F - 62.6 °F 94% 30.04 in 6.2 mi Variable 1.2 mph - N/A   Overcast
7:00 AM 66.2 °F - 64.4 °F 94% 30.06 in 6.2 mi Variable 1.2 mph - N/A   Mostly Cloudy
8:00 AM 71 °F - 66 °F 80% 30.08 in 12 mi ENE 3.5 mph - -   Partly Cloudy
8:00 AM 71.6 °F - 66.2 °F 83% 30.06 in 6.2 mi ENE 3.5 mph - N/A   Mostly Cloudy
9:00 AM 75.2 °F - 64.4 °F 69% 30.06 in 6.2 mi East 10.4 mph - N/A   Mostly Cloudy
10:00 AM 77.0 °F - 64.4 °F 65% 30.06 in 6.2 mi East 11.5 mph - N/A   Mostly Cloudy
11:00 AM 78 °F - 62 °F 48% 30.06 in 12 mi East 16.1 mph - -   Partly Cloudy
11:00 AM 78.8 °F - 62.6 °F 57% 30.06 in 6.2 mi East 16.1 mph - N/A   Mostly Cloudy
12:00 PM 80.6 °F 82.3 °F 64.4 °F 58% 30.04 in 6.2 mi East 15.0 mph - N/A   Mostly Cloudy
1:00 PM 77.0 °F - 62.6 °F 61% 30.04 in 6.2 mi East 13.8 mph - N/A   Mostly Cloudy
2:00 PM 77 °F - 61 °F 48% 30.01 in 12 mi East 11.5 mph - -   Partly Cloudy
2:00 PM 77.0 °F - 60.8 °F 57% 30.01 in 6.2 mi East 11.5 mph - N/A   Mostly Cloudy
3:00 PM 78.8 °F - 62.6 °F 57% 30.01 in 6.2 mi East 12.7 mph - N/A   Mostly Cloudy
4:00 PM 77.0 °F - 62.6 °F 61% 30.01 in 6.2 mi East 12.7 mph - N/A   Scattered Clouds
5:00 PM 75 °F - 62 °F 56% 30.03 in 12 mi East 10.4 mph - -   Partly Cloudy
5:00 PM 75.2 °F - 60.8 °F 61% 30.01 in 6.2 mi East 10.4 mph - N/A   Scattered Clouds
6:00 PM 71.6 °F - 60.8 °F 69% 30.04 in 6.2 mi ENE 3.5 mph - N/A   Mostly Cloudy
7:00 PM 71.6 °F - 64.4 °F 78% 30.06 in 6.2 mi Calm Calm - N/A   Mostly Cloudy
8:00 PM 70 °F - 64 °F 77% 30.09 in 12 mi Calm Calm - -   Partly Cloudy
8:00 PM 69.8 °F - 62.6 °F 78% 30.06 in 6.2 mi Calm Calm - N/A   Scattered Clouds
9:00 PM 68.0 °F - 62.6 °F 83% 30.06 in 6.2 mi Calm Calm - N/A   Scattered Clouds
10:00 PM 68.0 °F - 62.6 °F 83% 30.09 in 6.2 mi Variable 2.3 mph - N/A   Scattered Clouds
11:00 PM 66 °F - 62 °F 82% 30.09 in 12 mi ENE 3.5 mph - -   Partly Cloudy
11:00 PM 66.2 °F - 60.8 °F 83% 30.06 in 6.2 mi ENE 3.5 mph - N/A   Partly Cloudy